This is the latest recevied weather packets stored in our database for station/object DL9GRB-13. If no packets are shown the sender has not sent any weather packets the latest 10 day(s).
| Time | Temp. | Humidity | Pressure | Rain* | Wind** | Luminosity | Snow |
|---|---|---|---|---|---|---|---|
| 1778219709 | 9.44° C | 63% | 1020.3 hPa | 0 mm | - | 107 W/m² | - |
| 1778219529 | 9.44° C | 63% | 1020.2 hPa | 0 mm | - | 100 W/m² | - |
| 1778219349 | 9.44° C | 63% | 1020.1 hPa | 0 mm | - | 95 W/m² | - |
| 1778219169 | 9.44° C | 65% | 1020.1 hPa | 0 mm | - | 89 W/m² | - |
| 1778218989 | 8.89° C | 67% | 1020 hPa | 0 mm | - | 85 W/m² | - |
| 1778218809 | 8.89° C | 67% | 1020.2 hPa | 0 mm | - | 83 W/m² | - |
| 1778218629 | 8.33° C | 68% | 1020.1 hPa | 0 mm | - | 82 W/m² | - |
| 1778218449 | 8.33° C | 68% | 1020.2 hPa | 0 mm | - | 82 W/m² | - |
| 1778218269 | 8.33° C | 67% | 1020.1 hPa | 0 mm | - | 82 W/m² | - |
| 1778218089 | 8.33° C | 69% | 1020.1 hPa | 0 mm | - | 82 W/m² | - |
| 1778217909 | 7.78° C | 70% | 1020.1 hPa | 0 mm | - | 83 W/m² | - |
| 1778217729 | 7.78° C | 70% | 1019.9 hPa | 0 mm | - | 83 W/m² | - |
| 1778217549 | 7.78° C | 70% | 1019.8 hPa | 0 mm | - | 83 W/m² | - |
| 1778217369 | 7.22° C | 72% | 1019.8 hPa | 0 mm | - | 82 W/m² | - |
| 1778217189 | 6.67° C | 74% | 1020.1 hPa | 0 mm | - | 81 W/m² | - |
| 1778217009 | 6.67° C | 75% | 1019.9 hPa | 0 mm | - | 79 W/m² | - |
| 1778216829 | 6.11° C | 77% | 1020.1 hPa | 0 mm | - | 77 W/m² | - |
| 1778216649 | 5.56° C | 80% | 1019.9 hPa | 0 mm | - | 75 W/m² | - |
| 1778216469 | 5° C | 83% | 1019.9 hPa | 0 mm | - | 72 W/m² | - |
| 1778216289 | 4.44° C | 85% | 1019.9 hPa | 0 mm | - | 70 W/m² | - |
| 1778216109 | 4.44° C | 88% | 1019.9 hPa | 0 mm | - | 68 W/m² | - |
| 1778215929 | 3.89° C | 91% | 1019.9 hPa | 0 mm | - | 66 W/m² | - |
| 1778215749 | 3.33° C | 94% | 1019.9 hPa | 0 mm | - | 63 W/m² | - |
| 1778215569 | 2.78° C | 96% | 1020 hPa | 0 mm | - | 61 W/m² | - |
| 1778215389 | 2.78° C | 97% | 1019.8 hPa | 0 mm | - | 58 W/m² | - |
* Rain latest hour (hover to see other rain measurements)
** Current wind speed in m/s (hover to see current wind gust speed)